Wilmington Air Park (ILN)

 

Airport Diagram
Current Weather/Forecast (VFR Conditions)
METAR KILN 182354Z AUTO 31006KT 10SM CLR 14/M02 A2986 RMK AO2 SLP121 T01391022 10167 20139 50001
TAF KILN 182338Z 1900/1924 31005KT P6SM SCT100 FM190500 VRB03KT P6SM BKN120 FM191000 23005KT P6SM SCT120 FM191700 25010G17KT P6SM FEW050 SCT200

Airport Information

All Charts
General
Chart Name View
AIRPORT DIAGRAM
AIRPORT DIAGRAM
TAKEOFF MINIMUMS
ALTERNATE MINIMUMS
TAKEOFF MINIMUMS
ALTERNATE MINIMUMS

Approaches
Chart Name Download
ILS OR LOC RWY 04L
ILS OR LOC RWY 04R
ILS OR LOC RWY 22R
ILS OR LOC RWY 22L
ILS RWY 22R (SA CAT I)
ILS RWY 22L (CAT II)
ILS RWY 22R (CAT II - III)
RNAV (GPS) RWY 04L
RNAV (GPS) RWY 22R
ILS OR LOC RWY 04L
ILS OR LOC RWY 04R
ILS OR LOC RWY 22R
ILS OR LOC RWY 22L
ILS RWY 22R (SA CAT I)
ILS RWY 22L (CAT II)
ILS RWY 22R (CAT II - III)
RNAV (GPS) RWY 04L
RNAV (GPS) RWY 22R


Airport Statistics
Departures Arrivals Local
All Collected Stats since June 2016: 95 81 2
2021 Stats: 14 20 0
April Stats: 1 4 0

Inbound Traffic (Arrivals) - 0

No inbound traffic.


Outbound Traffic (Departures) - 0

No outbound traffic.


Local Traffic (Pattern) - 0

No local traffic.